Location: Cerh�nky
(50.0672°N, 15.0534°E)
Time: 11:24:35
(UTC+00:00)

Daily predictions for brighter satellites

Satellite Brightness Start Highest point End
(mag) Time Altitude Azimuth Time Altitude Azimuth Time Altitude Azimuth
Cosmos 332 Rocket 4.1 19:20:06 10° NNW 19:24:55 55° ENE 19:29:43 10° SE
ERS-1 Rocket 4.2 19:21:29 10° ESE 19:25:41 28° ENE 19:29:54 10° N
Cosmos 1606 3.0 19:26:17 10° NNW 19:30:02 69° W 19:33:49 10° S
Cosmos 2333 Rocket 4.1 19:28:17 10° N 19:32:13 19° NE 19:36:09 10° E
Nadezhda 4 Rocket 4.0 19:26:39 10° S 19:32:46 69° E 19:38:59 10° NNE
GP-B 4.1 19:30:37 10° NNE 19:34:34 30° E 19:38:29 10° SE
Landsat 7 3.9 19:33:43 10° SSE 19:38:29 85° WSW 19:43:17 10° NNW
Spot 2 Rocket 4.0 19:35:01 10° SE 19:39:55 48° ENE 19:44:50 10° N
ISS -3.1 19:36:41 10° W 19:39:56 43° SSW 19:42:58 11° SE
SPOT 3 Rocket 3.6 19:34:57 10° SSE 19:40:10 89° E 19:45:26 10° NNW
IGS 5A 3.8 19:37:35 10° S 19:41:43 68° WSW 19:45:52 10° NNW
Cosmos 1980 Rocket 3.0 19:38:40 10° NW 19:44:04 49° WSW 19:49:30 10° S
BREEZE-M DEB (TANK) 3.2 19:33:32 10° W 19:44:28 84° S 19:47:47 10° E
Cosmos 1812 4.4 19:42:17 10° NNE 19:45:13 20° ENE 19:48:00 11° ESE
USA 234 4.1 19:39:32 10° ENE 19:45:49 50° N 19:52:06 10° WNW
Cosmos 2058 4.5 19:42:19 10° SW 19:46:15 39° WNW 19:50:15 10° N
CZ-2C R/B 4.0 19:41:54 10° NNE 19:46:16 45° E 19:50:34 10° S
MetOp-B 4.2 19:41:14 10° SSE 19:46:36 87° ENE 19:52:00 10° NNW
Cosmos 2221 4.1 19:44:54 10° NNW 19:48:50 35° W 19:52:47 10° SSW
RESURS DK-1 2.9 19:47:55 10° SW 19:52:02 64° WNW 19:56:12 10° NNE
USA 245 3.7 19:48:21 10° SSE 19:53:25 73° ENE 19:57:30 10° N
Meteor 2-15 4.5 19:47:36 10° N 19:53:43 88° W 19:59:46 10° S
Cosmos 2322 Rocket 2.6 19:49:27 10° NNW 19:55:01 55° NE 19:59:58 13° SE
BREEZE-M DEB (TANK) 3.8 19:51:56 10° SW 19:55:45 53° SE 20:09:03 10° ENE
Cosmos 304 Rocket 3.8 19:54:35 10° NNW 19:59:25 84° WSW 20:03:55 12° SSE
Cosmos 1933 3.3 19:56:26 10° N 20:00:31 88° E 20:04:32 10° S
BREEZE-M DEB (TANK) 4.1 19:57:49 10° W 20:01:06 47° SSW 20:09:24 12° SE
Cosmos 1538 Rocket 4.0 19:57:31 10° SSW 20:02:45 88° WNW 20:07:58 10° NNE
Resurs 01 Rocket 2.7 20:00:14 10° S 20:04:27 43° W 20:08:44 10° NNW
ERS-2 3.4 20:01:00 10° N 20:04:30 44° WNW 20:07:57 10° SW
Cosmos 1553 Rocket 4.4 20:00:11 10° N 20:06:02 46° ENE 20:10:57 15° SE
Cosmos 2151 3.0 20:02:39 10° S 20:06:54 87° WNW 20:11:13 10° N
Cosmos 2098 Rocket 3.6 20:05:11 10° SSW 20:08:13 45° WNW 20:11:53 10° N
JB-3 4.4 20:05:04 10° NNE 20:09:13 68° ESE 20:13:16 10° S
Gbstr 26 Del rocket 2.9 20:06:25 10° WNW 20:10:05 55° SSW 20:12:56 17° SE
Meteor 2-3 Rocket 3.7 20:06:29 10° S 20:12:07 77° E 20:17:53 10° NNE
CARTOSAT-1 3.5 20:09:29 13° SSE 20:13:22 87° ENE 20:17:43 10° NNW
Cosmos 2219 Rocket 3.7 20:11:38 10° NNW 20:16:19 26° NE 20:20:58 10° E
Cosmos 1624 Rocket 4.4 20:13:42 10° NNW 20:18:49 53° ENE 20:22:39 18° SE
Cosmos 1862 4.3 20:21:25 19° SE 20:23:24 30° E 20:26:54 10° NNE
SL-16 R/B 2.3 20:17:52 10° NNW 20:23:35 79° WSW 20:28:03 17° SSE
Cosmos 1782 2.8 20:22:56 10° NNW 20:26:59 81° W 20:30:03 17° S
Cosmos 1515 Rocket 4.4 20:22:53 10° N 20:27:03 37° ENE 20:29:35 20° SE
COSMOS 2455 4.4 20:26:05 15° ESE 20:27:25 16° ESE 20:30:53 10° ENE
Cosmos 2237 4.3 20:21:51 10° NNW 20:27:35 72° ENE 20:31:46 19° SE
ARIANE 5 R/B 2.7 20:26:51 16° S 20:30:29 77° WSW 20:34:58 10° NNW
COSMOS 2428 4.2 20:25:54 10° NNW 20:30:47 28° NE 20:35:35 10° ESE
Meteor 2-6 Rocket 4.2 20:27:33 10° N 20:32:58 63° ENE 20:36:39 20° SSE
Cosmos 1271 Rocket 3.6 20:29:40 10° NNW 20:33:32 49° W 20:36:55 13° S
Cosmos 1809 Rocket 4.5 20:30:11 12° S 20:35:52 67° E 20:41:58 10° NNE
S3M 4.4 20:30:04 10° N 20:36:20 54° ENE 20:40:43 20° SE
USA 276 3.1 20:34:52 10° W 20:37:42 31° SSW 20:38:32 26° S
BREEZE-M DEB (TANK) 3.7 20:35:45 10° W 20:38:59 34° SSW 20:43:14 19° SSE
Cosmos 1151 Rocket 3.1 20:36:12 10° NNW 20:40:34 76° W 20:43:41 19° S
Cosmos 1766 Rocket 3.5 20:37:41 15° S 20:41:18 79° E 20:45:42 10° NNE
ATLAS 5 CENTAUR R/B 3.5 20:38:19 10° NW 20:42:58 33° NNE 20:48:25 10° E
Cosmos 1328 Rocket 3.5 20:40:21 10° N 20:44:49 89° W 20:47:39 22° S
Cosmos 1174 4.0 20:42:20 10° NNW 20:45:15 40° NE 20:46:29 26° E
ATLAS 2AS CENTAUR R/B 4.1 20:39:43 10° WSW 20:47:17 47° NNW 20:54:34 10° NE
Cosmos 923 Rocket 4.1 20:43:48 10° SSW 20:49:08 81° WNW 20:54:32 10° NNE
Cosmos 1452 Rocket 4.5 20:44:20 10° NNW 20:49:12 37° NE 20:52:30 18° ESE
ATLAS 3B R/B 4.2 20:44:40 10° WNW 20:50:36 29° WSW 20:56:42 10° S
Terra 1.8 20:47:56 22° SSE 20:51:03 85° WSW 20:55:51 10° NNW
USA 267 3.8 20:46:56 10° ENE 20:52:46 33° SE 20:58:34 10° SSW
SPOT 5 3.1 20:50:48 19° S 20:53:46 56° W 20:58:08 10° NNW
Cosmos 2082 Rocket 4.2 20:53:16 10° WSW 20:58:12 30° NW 21:03:12 10° NNE
Meteor 1-27 Rocket 4.1 20:53:09 10° N 20:58:38 50° ENE 21:01:49 24° SE
Cosmos 2056 Rocket 3.6 20:53:37 10° NNW 20:59:01 79° WSW 21:02:09 25° SSE
Meteor 2-21 Rocket 4.5 20:56:51 20° S 21:01:14 67° E 21:07:22 10° NNE
NOSS 2-1 (C) 3.0 21:00:51 39° SSE 21:01:36 47° SE 21:04:51 10° NE
BREEZE-M DEB (TANK) 2.1 21:01:41 10° W 21:03:13 45° WSW 21:03:13 45° WSW
ERS-1 Rocket 3.6 21:00:35 17° S 21:04:15 49° W 21:09:09 10° NNW
Cosmos 2360 Rocket 2.2 21:01:18 10° NNW 21:06:57 79° WSW 21:10:08 27° SSE
SL-27 R/B 2.5 21:06:23 38° S 21:07:32 60° ESE 21:11:06 10° NNE
Meteor 2-21 4.5 21:02:38 15° S 21:07:55 87° W 21:14:07 10° N
NOSS 2-1 (D) 2.8 21:08:18 38° S 21:09:16 58° SE 21:12:36 10° NE
Cosmos 2333 Rocket 2.3 21:11:55 10° NNW 21:17:36 69° ENE 21:20:38 28° SE
Cosmos 1833 4.3 21:14:09 22° S 21:17:54 60° ESE 21:23:35 10° NE
Meteor 1-10 Rocket 4.2 21:14:09 10° NNW 21:19:43 76° W 21:22:51 27° S
Cosmos 1812 3.8 21:17:32 10° NNW 21:21:09 39° W 21:23:04 23° SSW
Cosmos 2112 Rocket 4.4 21:18:33 10° SW 21:23:49 65° WNW 21:29:05 10° NNE
Cosmos 1500 Rocket 3.6 21:22:35 37° SSE 21:24:10 62° E 21:28:34 10° NNE
Cosmos 1680 Rocket 4.1 21:19:10 10° SW 21:24:21 57° WNW 21:29:33 10° NNE
Cosmos 972 Rocket 4.5 21:23:45 32° SSE 21:25:34 43° ESE 21:30:18 10° NNE
IRIDIUM 103 4.4 21:22:37 10° N 21:27:50 65° E 21:30:05 33° SSE
Cosmos 2322 3.8 21:22:10 10° NNW 21:27:55 77° ENE 21:30:49 31° SE
USA 234 3.4 21:22:42 14° ESE 21:28:28 77° NNE 21:35:02 10° WNW
COBE Rocket 3.9 21:29:38 35° SE 21:31:26 63° ENE 21:36:05 10° N
Cosmos 292 Rocket 3.9 21:27:00 10° NNW 21:31:45 65° WSW 21:33:40 35° S
Cosmos 2297 Rocket 4.2 21:35:24 11° E 21:35:54 11° E 21:37:32 10° ENE
Cosmos 2237 Rocket 3.6 21:33:04 10° NNW 21:38:08 32° NE 21:42:14 14° ESE
Cosmos 2322 Rocket 3.5 21:33:58 10° NW 21:38:46 29° WSW 21:41:46 18° SSW
Meteor 2-16 Rocket 4.5 21:35:25 23° SSW 21:39:27 79° W 21:45:35 10° N
Cosmos 1408 Rocket 4.3 21:40:12 22° SW 21:42:48 50° WNW 21:47:02 10° N
Cosmos 1743 Rocket 3.5 21:42:22 37° SSW 21:44:05 87° W 21:48:34 10° N
Cosmos 2285 Rocket 4.0 21:38:16 10° NNW 21:44:37 82° ENE 21:47:42 33° SSE
IRIDIUM 106 4.3 21:40:52 10° N 21:46:08 89° ESE 21:48:19 36° S
Cosmos 2227 Rocket 4.3 21:47:05 10° E 21:47:39 10° E 21:48:24 10° E
Cosmos 2315 Rocket 4.0 21:42:46 10° N 21:49:07 87° W 21:52:17 32° S
Gblst 52 Del rocket 4.5 21:44:50 10° WNW 21:51:01 83° SSW 21:56:45 17° ESE
Sich 1 3.3 21:51:50 45° SE 21:52:43 54° E 21:56:58 10° NNE
Cosmos 2084 3.8 21:49:24 10° WSW 21:53:27 60° NW 21:57:38 10° NE
Cosmos 494 Rocket 4.5 21:53:17 36° SE 21:54:19 40° ESE 21:59:06 10° NE
Okean 1 3.9 21:51:31 10° N 21:55:23 43° ENE 21:56:09 39° ESE
Cosmos 1633 Rocket 4.1 21:56:02 29° ESE 21:56:37 30° E 22:00:25 10° NNE
Cosmos 2266 Rocket 4.2 21:53:29 23° SSW 21:57:24 68° WNW 22:03:39 10° N
Cosmos 1666 Rocket 4.2 21:59:59 37° ESE 22:00:40 39° E 22:04:50 10° NNE
Cosmos 2219 Rocket 2.2 21:55:15 10° NNW 22:00:51 74° WSW 22:02:58 39° S
Cosmos 1048 Rocket 4.0 21:59:25 42° SSE 22:00:53 58° ESE 22:05:56 10° NNE
Cosmos 2228 Rocket 3.4 22:00:29 10° NNW 22:04:50 59° W 22:06:05 41° SSW
Meteor 1-19 Rocket 4.3 21:59:24 10° N 22:05:04 65° ENE 22:07:11 37° SE
SL-16 R/B 4.2 22:00:38 10° NNW 22:05:04 23° NE 22:09:30 10° E
SL-16 R/B 4.4 22:03:53 10° WNW 22:06:45 14° W 22:09:36 10° SW
NOSS 2-1 (E) 3.9 22:05:22 18° WSW 22:07:29 45° NW 22:11:00 10° NE
USA 40 PKM 4.2 22:04:15 10° WNW 22:07:54 88° SW 22:08:38 55° SE
NOSS 3-1 (C) 4.3 22:03:04 10° NW 22:10:22 58° SW 22:14:30 31° S
COSMOS 2455 2.7 22:09:10 29° SSW 22:12:24 79° ESE 22:18:27 10° NE
Meteor 2-4 Rocket 4.4 22:07:52 10° N 22:13:36 47° ENE 22:16:13 29° SE
COSMOS 2428 2.7 22:09:54 10° NNW 22:15:36 70° WSW 22:17:35 41° S
Cosmos 1602 3.5 22:17:48 70° SSE 22:18:09 78° E 22:22:01 10° NNE
CZ-4C R/B 4.2 22:12:39 10° NW 22:18:36 35° NNE 22:25:37 10° E
Cosmos 1515 3.6 22:16:42 10° NNW 22:20:29 73° W 22:20:48 67° SW
Cosmos 1862 Rocket 3.8 22:17:44 10° N 22:22:03 57° ENE 22:22:56 47° ESE
Spot 4 4.2 22:21:45 40° SSW 22:23:07 55° W 22:27:53 10° NNW
USA 229 DEB 3.9 22:17:24 10° NW 22:24:39 69° SW 22:28:16 34° SSE
USA 229 3.9 22:17:30 10° NW 22:24:45 70° SW 22:28:23 34° SSE
ATLAS 5 CENTAUR R/B 2.2 22:22:38 10° NW 22:28:06 79° SW 22:30:39 38° SSE
Terra 4.3 22:27:41 10° WSW 22:29:32 12° W 22:31:24 10° WNW
Cosmos 1452 Rocket 4.3 22:26:30 10° NW 22:31:22 39° WSW 22:32:49 33° SW
Cosmos 1707 Rocket 3.6 22:27:09 10° NNW 22:31:29 68° W 22:32:18 54° SSW
COSMOS 2487 3.1 22:31:49 42° W 22:32:16 45° WNW 22:35:34 10° NNE
Thor Agena Rocket 4.4 22:28:34 10° NNE 22:33:09 33° E 22:34:07 31° ESE
ALOS 2 2.7 22:33:57 54° SSW 22:34:46 68° WSW 22:39:10 10° NNW
USA 267 3.2 22:29:43 10° ENE 22:36:18 88° SE 22:42:52 10° WSW
Cosmos 2219 4.2 22:40:38 29° SE 22:41:41 31° ESE 22:46:39 10° NE
Nadezhda 1 Rocket 4.1 22:35:19 10° N 22:41:45 72° ENE 22:44:26 37° SSE
Cosmos 1666 3.2 22:44:25 45° E 22:44:27 45° E 22:48:09 10° NNE
NOSS 3-1 (A) 4.2 22:37:46 10° NW 22:45:04 58° SW 22:48:48 34° S
SL-08 ROCKET BODY 4.4 22:44:14 40° S 22:46:37 88° W 22:52:50 10° N
Cosmos 2360 Rocket 4.2 22:47:14 10° WNW 22:50:00 14° W 22:51:53 12° WSW
NOSS 2-2 (D) 4.3 22:51:32 10° NW 22:56:37 82° NE 23:00:43 25° SE
Cosmos 1980 3.6 22:53:48 10° NNW 22:59:30 79° WSW 23:01:19 45° SSE
Cosmos 2333 Rocket 3.6 22:57:01 10° NW 23:01:21 23° WSW 23:02:38 21° WSW
CZ-2D R/B 4.4 23:04:04 10° ENE 23:06:31 13° E 23:09:00 10° ESE
Meteor 2-17 Rocket 4.5 23:05:18 41° SSE 23:07:28 69° E 23:13:29 10° NNE
Nimbus 7 Rocket 4.4 23:05:32 10° NNE 23:11:35 82° WNW 23:14:02 38° SSW
USA 234 3.6 23:10:02 38° S 23:11:46 45° SW 23:18:02 10° WNW
SL-16 R/B 4.2 23:07:16 10° ESE 23:12:17 27° NE 23:17:21 10° N
Cosmos 1340 Rocket 2.8 23:13:35 59° ESE 23:13:45 60° E 23:17:39 10° NNE
NOSS 0 Rocket 4.3 23:08:21 10° NW 23:14:17 47° WSW 23:16:01 38° SSW
EO 1 Del DPAF 4.4 23:13:19 10° NNE 23:16:40 30° E 23:16:42 30° E
Okean 1-7 3.0 23:13:56 10° N 23:18:12 74° E 23:18:54 59° SE
Cosmos 2297 Rocket 2.2 23:17:12 45° S 23:18:50 66° ESE 23:24:28 10° NNE
Lacrosse 5 2.0 23:21:59 48° SSE 23:22:27 50° SE 23:27:21 10° ENE
Cosmos 2237 Rocket 2.3 23:16:58 10° NW 23:22:32 58° WSW 23:24:02 44° SSW
Cosmos 2242 Rocket 3.5 23:19:53 10° N 23:24:20 86° E 23:25:08 59° SSE
Cosmos 1869 Rocket 4.4 23:23:27 36° ESE 23:24:21 41° E 23:28:33 10° NNE
Cosmos 2084 Rocket 3.8 23:20:21 10° NW 23:24:07 47° WSW 23:24:07 47° WSW
NOSS 2-2 (E) 4.5 23:20:26 10° NW 23:25:44 62° SW 23:28:32 36° SSE
Cosmos 1500 4.4 23:26:57 30° W 23:27:35 32° WNW 23:31:05 10° N
Cosmos 2181 Rocket 4.3 23:21:25 10° N 23:27:44 62° ENE 23:30:51 30° SSE
Cosmos 1470 Rocket 3.8 23:29:03 47° WSW 23:29:52 55° WNW 23:34:08 10° N
Cosmos 2227 Rocket 2.3 23:28:53 44° S 23:30:32 62° ESE 23:36:08 10° NE
Cosmos 909 Rocket 4.4 23:31:45 37° S 23:34:18 59° ESE 23:41:54 10° NE
Cosmos 1633 Rocket 4.3 23:33:06 27° WSW 23:34:21 31° WNW 23:38:17 10° N
Cosmos 1933 Rocket 3.6 23:35:34 55° SW 23:36:27 73° W 23:40:56 10° N
Timation 1 Rocket 4.5 23:41:04 40° S 23:43:04 61° ESE 23:49:00 10° NE
Meteor 1-11 Rocket 3.7 23:41:19 42° S 23:43:12 74° E 23:48:44 10° NNE
Cosmos 2219 Rocket 4.2 23:41:27 10° WNW 23:43:48 13° W 23:44:40 12° WSW
Cosmos 2263 Rocket 4.0 23:46:36 15° SE 23:48:54 19° E 23:52:44 10° ENE
SL-16 R/B 2.1 23:44:18 10° NNW 23:50:00 90° ENE 23:52:42 33° SSE
Cosmos 1992 Rocket 3.9 23:45:13 10° NNW 23:50:27 74° WSW 23:52:06 44° S
PSLV R/B 4.1 23:46:04 10° N 23:50:46 61° WNW 23:52:12 41° SW
Cosmos 1269 Rocket 4.3 23:50:05 36° SW 23:52:08 61° WNW 23:57:25 10° NNE
ADEOS Rocket 4.1 23:47:15 10° SE 23:52:09 34° ENE 23:57:04 10° N
Resurs 1-4 Rocket 3.4 23:48:13 10° NNE 23:52:52 30° E 23:55:13 21° SE
